Date String (YYYY-MM-DD hh:mm:ss) UTC,Instrument flags,Ambient pressure (hPa),Sample flow (lpm),Bypass flow (lpm),Sample temperature (°C),Ambient temperature (°C),ASC tube jacket temperature (°C),LED temperature (°C),Box temperature (°C),Sample RH (%),Span deviation,Mass concentration (μg/m³),Mass concentration (μg/m³),Mass concentration (μg/m³)
DateTimeUTC,F1_M11,P_M11,Q1_M11,Q2_M11,T1_M11,T2_M11,T3_M11,T4_M11,T5_M11,U1_M11,ZSPAN_M11,X0_M11,X2_M11,X1_M11
2022-06-22 03:00:00,,0834.1,5.00,0.00,29.5,28.5,00.0,38.3,31.5,13.4,0000.0,0007.86,0002.73,0001.30
2022-06-22 03:01:00,,0834.1,4.99,0.00,29.6,28.6,00.0,38.3,31.5,13.3,0000.0,0008.16,0002.71,0001.28
2022-06-22 03:02:00,,0834.1,5.01,0.00,29.6,28.7,00.0,38.3,31.6,13.3,0000.0,0008.36,0002.78,0001.27
2022-06-22 03:03:00,,0834.0,5.01,0.00,29.6,28.7,00.0,38.4,31.6,13.2,0000.0,0008.63,0002.78,0001.25
2022-06-22 03:04:00,,0834.0,5.00,0.00,29.7,28.8,00.0,38.4,31.6,13.2,0000.0,0008.81,0002.80,0001.25
2022-06-22 03:05:00,,0834.0,4.99,0.00,29.7,28.9,00.0,38.4,31.7,13.2,0000.0,0008.65,0002.78,0001.25
2022-06-22 03:06:00,,0834.0,5.00,0.00,29.7,28.8,00.0,38.4,31.7,13.1,0000.0,0008.60,0002.70,0001.25
2022-06-22 03:07:00,,0834.0,5.01,0.00,29.7,28.1,00.0,38.4,31.5,13.1,0000.0,0008.46,0002.62,0001.26
2022-06-22 03:08:00,,0834.0,5.02,0.00,29.6,27.5,00.0,38.3,31.3,13.2,0000.0,0007.89,0002.52,0001.25
2022-06-22 03:09:00,,0834.1,5.00,0.00,29.6,27.4,00.0,38.3,31.3,13.2,0000.0,0007.92,0002.54,0001.25
2022-06-22 03:10:00,,0834.0,5.00,0.00,29.5,27.5,00.0,38.3,31.2,13.3,0000.0,0007.87,0002.56,0001.25
2022-06-22 03:11:00,,0834.1,5.00,0.00,29.5,27.6,00.0,38.3,31.2,13.3,0000.0,0007.64,0002.55,0001.24
2022-06-22 03:12:00,,0834.0,4.99,0.00,29.5,27.7,00.0,38.3,31.3,13.3,0000.0,0008.01,0002.57,0001.24
2022-06-22 03:13:00,,0834.0,5.01,0.00,29.5,27.9,00.0,38.3,31.3,13.3,0000.0,0008.27,0002.49,0001.24
2022-06-22 03:14:00,,0834.1,5.00,0.00,29.5,28.0,00.0,38.3,31.3,13.3,0000.0,0007.98,0002.48,0001.25
2022-06-22 03:15:00,,0834.1,4.99,0.00,29.5,28.2,00.0,38.3,31.4,13.2,0000.0,0007.75,0002.44,0001.24
2022-06-22 03:16:00,,0834.2,5.01,0.00,29.5,28.3,00.0,38.3,31.4,13.2,0000.0,0007.68,0002.52,0001.24
2022-06-22 03:17:00,,0834.3,5.00,0.00,29.5,28.4,00.0,38.3,31.5,13.2,0000.0,0007.71,0002.61,0001.25
2022-06-22 03:18:00,,0834.3,5.01,0.00,29.5,28.5,00.0,38.3,31.5,13.1,0000.0,0007.74,0002.63,0001.23
2022-06-22 03:19:00,,0834.3,4.99,0.00,29.6,28.6,00.0,38.3,31.5,13.1,0000.0,0008.00,0002.73,0001.24
2022-06-22 03:20:00,,0834.3,5.01,0.00,29.6,28.7,00.0,38.3,31.6,13.1,0000.0,0008.09,0002.75,0001.24
2022-06-22 03:21:00,,0834.3,4.99,0.00,29.6,28.7,00.0,38.4,31.6,13.1,0000.0,0008.21,0002.82,0001.25
2022-06-22 03:22:00,,0834.3,5.00,0.00,29.7,28.8,00.0,38.4,31.6,13.0,0000.0,0008.34,0002.90,0001.26
2022-06-22 03:23:00,,0834.3,5.01,0.00,29.7,28.9,00.0,38.4,31.7,13.0,0000.0,0008.02,0002.96,0001.27
2022-06-22 03:24:00,,0834.3,4.99,0.00,29.7,28.9,00.0,38.4,31.7,13.0,0000.0,0007.82,0003.05,0001.28
2022-06-22 03:25:00,,0834.3,5.00,0.00,29.8,28.7,00.0,38.4,31.7,12.9,0000.0,0007.87,0003.08,0001.29
2022-06-22 03:26:00,,0834.3,5.00,0.00,29.7,27.8,00.0,38.4,31.4,13.0,0000.0,0008.65,0003.14,0001.30
2022-06-22 03:27:00,,0834.3,5.00,0.00,29.6,27.5,00.0,38.3,31.3,13.0,0000.0,0008.62,0003.15,0001.31
2022-06-22 03:28:00,,0834.3,5.00,0.00,29.6,27.5,00.0,38.3,31.3,13.0,0000.0,0008.58,0003.12,0001.33
2022-06-22 03:29:00,,0834.3,5.00,0.00,29.5,27.5,00.0,38.3,31.3,13.1,0000.0,0008.95,0003.10,0001.34
2022-06-22 03:30:00,,0834.3,5.00,0.00,29.5,27.7,00.0,38.3,31.3,13.1,0000.0,0008.99,0003.08,0001.35
2022-06-22 03:31:00,,0834.3,5.00,0.00,29.5,27.8,00.0,38.3,31.3,13.1,0000.0,0008.85,0003.07,0001.35
2022-06-22 03:32:00,,0834.4,5.00,0.00,29.5,28.0,00.0,38.3,31.3,13.0,0000.0,0009.11,0003.09,0001.36
2022-06-22 03:33:00,,0834.3,4.98,0.00,29.5,28.1,00.0,38.3,31.4,13.0,0000.0,0009.91,0003.14,0001.37
2022-06-22 03:34:00,,0834.3,5.00,0.00,29.5,28.2,00.0,38.3,31.4,13.0,0000.0,0010.11,0003.14,0001.38
2022-06-22 03:35:00,,0834.4,5.00,0.00,29.5,28.3,00.0,38.3,31.4,13.0,0000.0,0009.90,0003.11,0001.38
2022-06-22 03:36:00,,0834.4,4.99,0.00,29.6,28.5,00.0,38.3,31.5,12.9,0000.0,0010.11,0003.16,0001.39
2022-06-22 03:37:00,,0834.4,5.02,0.00,29.6,28.5,00.0,38.4,31.5,12.9,0000.0,0009.44,0003.13,0001.40
2022-06-22 03:38:00,,0834.5,5.00,0.00,29.6,28.6,00.0,38.4,31.5,12.9,0000.0,0009.33,0003.09,0001.41
2022-06-22 03:39:00,,0834.4,5.00,0.00,29.6,28.7,00.0,38.4,31.6,12.9,0000.0,0009.51,0003.10,0001.41
2022-06-22 03:40:00,,0834.4,4.99,0.00,29.7,28.8,00.0,38.4,31.6,12.8,0000.0,0009.52,0003.13,0001.41
2022-06-22 03:41:00,,0834.5,5.01,0.00,29.7,28.9,00.0,38.4,31.7,12.8,0000.0,0009.95,0003.13,0001.40
2022-06-22 03:42:00,,0834.5,5.00,0.00,29.7,28.9,00.0,38.5,31.7,12.8,0000.0,0010.15,0003.14,0001.40
2022-06-22 03:43:00,,0834.5,4.99,0.00,29.7,28.3,00.0,38.4,31.6,12.7,0000.0,0010.18,0003.10,0001.42
2022-06-22 03:44:00,,0834.4,5.00,0.00,29.7,27.6,00.0,38.3,31.4,12.8,0000.0,0009.13,0002.96,0001.42
2022-06-22 03:45:00,,0834.5,5.01,0.00,29.6,27.4,00.0,38.3,31.3,12.8,0000.0,0009.10,0002.93,0001.41
2022-06-22 03:46:00,,0834.5,5.01,0.00,29.5,27.4,00.0,38.3,31.2,12.9,0000.0,0008.78,0002.90,0001.40
2022-06-22 03:47:00,,0834.5,4.99,0.00,29.5,27.5,00.0,38.3,31.2,12.9,0000.0,0008.67,0002.90,0001.39
2022-06-22 03:48:00,,0834.5,4.99,0.00,29.5,27.7,00.0,38.3,31.3,12.9,0000.0,0008.73,0002.96,0001.39
2022-06-22 03:49:00,,0834.5,5.01,0.00,29.5,27.8,00.0,38.3,31.3,12.9,0000.0,0008.74,0002.95,0001.39
2022-06-22 03:50:00,,0834.5,5.00,0.00,29.5,28.0,00.0,38.3,31.3,12.9,0000.0,0008.61,0002.92,0001.38
2022-06-22 03:51:00,,0834.4,5.00,0.00,29.5,28.1,00.0,38.3,31.4,12.9,0000.0,0008.38,0002.92,0001.38
2022-06-22 03:52:00,,0834.5,5.00,0.00,29.5,28.2,00.0,38.3,31.4,12.9,0000.0,0007.51,0002.91,0001.40
2022-06-22 03:53:00,,0834.4,5.00,0.00,29.5,28.3,00.0,38.3,31.4,12.9,0000.0,0007.34,0002.93,0001.40
2022-06-22 03:54:00,,0834.5,5.01,0.00,29.5,28.4,00.0,38.4,31.5,12.9,0000.0,0007.32,0003.00,0001.40
2022-06-22 03:55:00,,0834.5,4.99,0.00,29.6,28.5,00.0,38.4,31.5,12.9,0000.0,0007.60,0003.07,0001.40
2022-06-22 03:56:00,,0834.5,5.00,0.00,29.6,28.6,00.0,38.4,31.5,12.8,0000.0,0008.09,0003.03,0001.41
2022-06-22 03:57:00,,0834.6,5.01,0.00,29.6,28.7,00.0,38.4,31.6,12.8,0000.0,0008.67,0003.09,0001.42
2022-06-22 03:58:00,,0834.5,4.99,0.00,29.7,28.8,00.0,38.4,31.6,12.8,0000.0,0009.23,0003.10,0001.44
2022-06-22 03:59:00,,0834.6,5.01,0.00,29.7,28.8,00.0,38.4,31.6,12.8,0000.0,0009.70,0003.11,0001.44
